Home   Weather   Wilhelmshaven   Past weeks
Flag for Germany

Past Weather in Wilhelmshaven, Lower Saxony, Germany — Yesterday and Last 2 Weeks

Now
41 °F

Quite cool.


Feels Like: 36 °F
Forecast: 49 / 39 °F
Wind: 7 mph from Northeast

Location: Wittmundhaven

Current Time: Apr 9, 2020 at 11:03:41 pm

Latest Report: Apr 9, 2020 at 10:20 pm


Visibility: 4 mi

Pressure: 30.39 "Hg

Humidity: 87%

Dew Point: 37 °F

Location of WilhelmshavenLocation

Past Weather in Wilhelmshaven — Graph

°F

Wilhelmshaven Temperature Yesterday

Maximum temperature yesterday: 66 °F (at 1:20 pm)
Minimum temperature yesterday: 45 °F (at 11:20 pm)
Average temperature yesterday: 54 °F

High & Low Weather Summary for the Past Weeks

 TemperatureHumidityPressure
High73 °F (Apr 6, 3:20 pm)100% (Apr 7, 4:20 am)30.57 "Hg (Apr 7, 4:20 am)
Low27 °F (Mar 31, 4:20 am)22% (Apr 6, 4:20 pm)29.71 "Hg (Apr 2, 6:20 pm)
Average45 °F63%30.23 "Hg
* Reported Mar 25 8:20 pm — Apr 9 9:20 pm, Wilhelmshaven. Weather by CustomWeather, © 2020

Note: Actual official high and low records may vary slightly from our data, if they occured in-between our weather recording intervals... More about our weather records

Wilhelmshaven Weather History for the Previous 24 Hours

Scroll right to see more
 ConditionsComfort  
Time TempWeatherWind HumidityBarometerVisibility
9:20 pm
Thu, Apr 9
43 °FPassing clouds.5 mph81%30.36 "HgN/A
8:20 pm45 °FPassing clouds.6 mph76%30.36 "HgN/A
7:20 pm46 °FPartly sunny.13 mph71%30.36 "HgN/A
6:20 pm48 °FScattered clouds.13 mph62%30.33 "HgN/A
5:20 pm50 °FScattered clouds.12 mph58%30.33 "HgN/A
4:20 pm50 °FPassing clouds.13 mph62%30.33 "HgN/A
3:20 pm52 °FPassing clouds.12 mph67%30.33 "HgN/A
2:20 pm54 °FScattered clouds.13 mph67%30.33 "HgN/A
1:20 pm55 °FScattered clouds.12 mph63%30.30 "HgN/A
12:20 pm57 °FPassing clouds.9 mph63%30.30 "HgN/A
11:20 am59 °FPassing clouds.9 mph51%30.30 "HgN/A
10:20 am55 °FPassing clouds.5 mph59%30.27 "HgN/A
9:20 am48 °FScattered clouds.3 mph82%30.27 "HgN/A
9:00 am48 °FPartly sunny.3 mph87%30.27 "HgN/A
8:20 am43 °FQuite cool.3 mph93%30.27 "Hg2 mi
7:20 am39 °FChilly.1 mph93%30.27 "Hg2 mi
6:20 am39 °FChilly.2 mph93%30.24 "Hg0 mi
5:20 am39 °FChilly.1 mph93%30.24 "Hg0 mi
4:20 am39 °FChilly.2 mph100%30.21 "Hg0 mi
3:20 am41 °FQuite cool.2 mph100%30.24 "Hg1 mi
2:20 am41 °FQuite cool.3 mph93%30.24 "Hg2 mi
1:20 am43 °FQuite cool.1 mph87%30.24 "Hg2 mi
12:20 am45 °FQuite cool.1 mph87%30.24 "Hg2 mi
11:20 pm
Wed, Apr 8
45 °FQuite cool.1 mph93%30.21 "Hg3 mi
Weather by CustomWeather, © 2020

See weather overview

Advertising